EW4258 Weather Reports


Display with metric or nautical units.
time (UTC)temp
F
wind
direction
speed
MPH
gust
MPH
rain 1hr
in
rain 24hr
in
rain mn
in
humidity
%
barometer
mb
20260504015112 51 135 0.0 0.0 0.00 0.00 0.00 46 1015.9
20260504014112 51 157 0.0 0.0 0.00 0.00 0.00 46 1015.6
20260504013112 51 135 0.0 0.0 0.00 0.00 0.00 45 1015.6
20260504012111 51 315 0.0 0.0 0.00 0.00 0.00 44 1015.6
20260504011111 52 157 0.0 0.0 0.00 0.00 0.00 44 1015.6
20260504010113 52 202 0.0 0.0 0.00 0.00 0.00 44 1015.6
20260504005111 52 202 0.0 0.0 0.00 0.00 0.00 44 1015.6
20260504004111 52 202 0.0 0.0 0.00 0.00 0.00 44 1015.6
20260504003111 53 67 0.0 0.0 0.00 0.00 0.00 43 1015.6
20260504002111 53 45 0.0 0.0 0.00 0.00 0.00 43 1015.6
20260504001111 53 202 0.0 0.0 0.00 0.00 0.00 43 1015.6
20260504000111 53 202 0.0 0.0 0.00 0.00 0.00 42 1015.2
20260503235111 53 157 1.0 0.0 0.00 0.00 0.00 42 1015.2
20260503234111 53 45 0.0 0.0 0.00 0.00 0.00 43 1015.1
20260503233111 54 90 0.0 1.0 0.00 0.00 0.00 42 1015.1
20260503232111 54 202 0.0 0.0 0.00 0.00 0.00 42 1014.6
20260503231110 55 90 0.0 1.0 0.00 0.00 0.00 41 1014.6
20260503230110 55 202 0.0 0.0 0.00 0.00 0.00 40 1015.0
20260503224112 56 67 0.0 0.0 0.00 0.00 0.00 40 1014.8
20260503223110 56 202 0.0 0.0 0.00 0.00 0.00 39 1014.8
20260503222110 56 67 0.0 0.0 0.00 0.00 0.00 39 1014.5
20260503221110 56 135 1.0 1.0 0.00 0.00 0.00 38 1014.5
20260503220109 57 135 0.0 0.0 0.00 0.00 0.00 37 1014.6
20260503215115 57 157 0.0 0.0 0.00 0.00 0.00 37 1014.6
20260503214114 58 157 0.0 0.0 0.00 0.00 0.00 36 1014.2
20260503213115 58 112 0.0 1.0 0.00 0.00 0.00 36 1014.2
20260503210115 60 112 0.0 0.0 0.00 0.00 0.00 34 1013.9
20260503205114 61 90 0.0 0.0 0.00 0.00 0.00 33 1013.9
20260503203114 61 225 0.0 2.0 0.00 0.00 0.00 32 1013.9
20260503201114 62 90 1.0 3.0 0.00 0.00 0.00 31 1013.9
20260503200114 62 45 0.0 2.0 0.00 0.00 0.00 30 1013.3
20260503194113 63 225 0.0 0.0 0.00 0.00 0.00 29 1013.5
20260503193113 64 67 0.0 1.0 0.00 0.00 0.00 30 1013.5
20260503191113 66 67 0.0 0.0 0.00 0.00 0.00 28 1013.2
20260503190113 67 22 0.0 0.0 0.00 0.00 0.00 27 1013.1
20260503185113 68 135 2.0 1.0 0.00 0.00 0.00 25 1013.1
20260503184113 69 45 0.0 2.0 0.00 0.00 0.00 25 1012.7
20260503183113 71 292 0.0 0.0 0.00 0.00 0.00 25 1012.7
20260503182113 72 135 1.0 1.0 0.00 0.00 0.00 25 1012.6
20260503181113 73 135 0.0 0.0 0.00 0.00 0.00 25 1012.6
20260503180113 74 202 0.0 2.0 0.00 0.00 0.00 25 1012.3
20260503175113 74 247 0.0 2.0 0.00 0.00 0.00 25 1012.3
20260503173112 76 247 2.0 3.0 0.00 0.00 0.00 25 1012.2
20260503172112 77 225 2.0 3.0 0.00 0.00 0.00 25 1012.0
20260503171112 78 135 3.0 3.0 0.00 0.00 0.00 25 1012.0
20260503160112 79 157 2.0 2.0 0.00 0.00 0.00 25 1011.8
20260503150111 82 225 4.0 4.0 0.00 0.00 0.00 25 1012.3
20260503140112 81 247 3.0 4.0 0.00 0.00 0.00 25 1012.8
20260503131111 80 67 2.0 3.0 0.00 0.00 0.00 25 1013.3
20260503130117 80 112 2.0 3.0 0.00 0.00 0.00 25 1013.7
20260503120115 78 135 3.0 7.0 0.00 0.00 0.00 27 1014.2
20260503110114 74 135 1.0 2.0 0.00 0.00 0.00 33 1014.9
20260503100114 70 202 1.0 1.0 0.00 0.00 0.00 38 1016.0
20260503090113 64 157 1.0 2.0 0.00 0.00 0.00 39 1016.9
20260503072112 56 202 0.0 0.0 0.00 0.00 0.00 39 1018.2
20260503071112 56 112 0.0 0.0 0.00 0.00 0.00 40 1018.2
20260503070112 56 90 0.0 0.0 0.00 0.00 0.00 41 1018.0
20260503060112 50 45 0.0 0.0 0.00 0.00 0.00 47 1018.5
20260503055112 49 157 0.0 0.0 0.00 0.00 0.00 49 1018.5
20260503054112 46 112 0.0 0.0 0.00 0.00 0.00 50 1018.7
20260503053112 45 112 0.0 0.0 0.00 0.00 0.00 51 1018.7
20260503052112 42 180 0.0 0.0 0.00 0.00 0.00 52 1018.7
20260503051112 40 135 0.0 0.0 0.00 0.00 0.00 53 1018.7
20260503050111 40 157 0.0 0.0 0.00 0.00 0.00 52 1018.7
20260503045111 40 135 1.0 0.0 0.00 0.00 0.00 51 1018.7
20260503044111 40 67 0.0 2.0 0.00 0.00 0.00 52 1018.6
20260503043111 40 180 0.0 0.0 0.00 0.00 0.00 51 1018.6
20260503042111 40 135 0.0 0.0 0.00 0.00 0.00 52 1018.5
20260503035111 40 67 0.0 0.0 0.00 0.00 0.00 50 1018.5
20260503033113 40 180 0.0 0.0 0.00 0.00 0.00 50 1018.4
20260503032113 41 112 0.0 0.0 0.00 0.00 0.00 48 1018.0
20260503031113 41 157 0.0 0.0 0.00 0.00 0.00 49 1018.0
20260503030113 41 135 0.0 0.0 0.00 0.00 0.00 49 1018.2
20260503025114 41 157 0.0 0.0 0.00 0.00 0.00 48 1018.2
20260503024113 41 157 0.0 0.0 0.00 0.00 0.00 47 1018.4
20260503023114 42 45 0.0 0.0 0.00 0.00 0.00 47 1018.4
20260503021113 42 157 0.0 0.0 0.00 0.00 0.00 47 1018.4
20260503020112 42 135 0.0 0.0 0.00 0.00 0.00 47 1018.2